| time (UTC) | temp F | wind direction | speed MPH | gust MPH | rain 1hr in | rain 24hr in | rain mn in | humidity % | barometer mb |
| 20260504050505 | 47 | 225 | 0.0 | 2.0 | 0.00 | 0.00 | 0.00 | 72 | 1015.0 |
| 20260504050004 | 47 | 225 | 0.0 | 3.0 | 0.00 | 0.00 | 0.00 | 72 | 1015.0 |
| 20260504045504 | 47 | 212 | 1.0 | 5.0 | 0.00 | 0.00 | 0.00 | 71 | 1015.0 |
| 20260504045004 | 47 | 202 | 1.0 | 6.0 | 0.00 | 0.00 | 0.00 | 71 | 1014.9 |
| 20260504044504 | 48 | 222 | 0.0 | 3.0 | 0.00 | 0.00 | 0.00 | 71 | 1014.8 |
| 20260504044004 | 48 | 225 | 0.0 | 6.0 | 0.00 | 0.00 | 0.00 | 70 | 1014.7 |
| 20260504043505 | 48 | 202 | 1.0 | 7.0 | 0.00 | 0.00 | 0.00 | 70 | 1014.9 |
| 20260504043004 | 48 | 217 | 0.0 | 5.0 | 0.00 | 0.00 | 0.00 | 69 | 1014.8 |
| 20260504042504 | 48 | 213 | 0.0 | 7.0 | 0.00 | 0.00 | 0.00 | 69 | 1014.9 |
| 20260504042004 | 48 | 203 | 2.0 | 7.0 | 0.00 | 0.00 | 0.00 | 69 | 1014.7 |
| 20260504041504 | 48 | 212 | 2.0 | 6.0 | 0.00 | 0.00 | 0.00 | 69 | 1014.8 |
| 20260504041004 | 48 | 203 | 1.0 | 5.0 | 0.00 | 0.00 | 0.00 | 68 | 1014.7 |
| 20260504040504 | 48 | 206 | 1.0 | 7.0 | 0.00 | 0.00 | 0.00 | 67 | 1014.7 |
| 20260504040004 | 48 | 207 | 1.0 | 7.0 | 0.00 | 0.00 | 0.00 | 67 | 1014.6 |
| 20260504035504 | 48 | 202 | 0.0 | 7.0 | 0.00 | 0.00 | 0.00 | 67 | 1014.6 |
| 20260504034504 | 48 | 204 | 1.0 | 6.0 | 0.00 | 0.00 | 0.00 | 65 | 1014.6 |
| 20260504033004 | 48 | 217 | 1.0 | 7.0 | 0.00 | 0.00 | 0.00 | 63 | 1014.4 |
| 20260504032003 | 48 | 215 | 2.0 | 7.0 | 0.00 | 0.00 | 0.00 | 63 | 1014.4 |
| 20260504031504 | 48 | 202 | 1.0 | 3.0 | 0.00 | 0.00 | 0.00 | 62 | 1014.3 |
| 20260504031004 | 48 | 202 | 1.0 | 3.0 | 0.00 | 0.00 | 0.00 | 62 | 1014.3 |
| 20260504030504 | 48 | 225 | 2.0 | 6.0 | 0.00 | 0.00 | 0.00 | 62 | 1014.4 |
| 20260504025505 | 49 | 215 | 0.0 | 0.0 | 0.00 | 0.00 | 0.00 | 61 | 1014.2 |
| 20260504025004 | 49 | 213 | 0.0 | 0.0 | 0.00 | 0.00 | 0.00 | 60 | 1014.3 |
| 20260504024504 | 49 | 209 | 2.0 | 7.0 | 0.00 | 0.00 | 0.00 | 59 | 1014.3 |
| 20260504024004 | 49 | 218 | 0.0 | 5.0 | 0.00 | 0.00 | 0.00 | 59 | 1014.3 |
| 20260504023504 | 49 | 180 | 1.0 | 5.0 | 0.00 | 0.00 | 0.00 | 58 | 1014.3 |
| 20260504022504 | 50 | 220 | 0.0 | 2.0 | 0.00 | 0.00 | 0.00 | 58 | 1014.4 |
| 20260504022004 | 50 | 202 | 0.0 | 6.0 | 0.00 | 0.00 | 0.00 | 58 | 1014.4 |
| 20260504021504 | 50 | 202 | 0.0 | 2.0 | 0.00 | 0.00 | 0.00 | 57 | 1014.5 |
| 20260504021005 | 50 | 218 | 0.0 | 3.0 | 0.00 | 0.00 | 0.00 | 56 | 1014.4 |
| 20260504020504 | 50 | 195 | 0.0 | 7.0 | 0.00 | 0.00 | 0.00 | 55 | 1014.3 |
| 20260504015504 | 50 | 225 | 0.0 | 3.0 | 0.00 | 0.00 | 0.00 | 54 | 1014.4 |
| 20260504014504 | 50 | 203 | 0.0 | 5.0 | 0.00 | 0.00 | 0.00 | 54 | 1014.3 |
| 20260504014004 | 50 | 203 | 1.0 | 5.0 | 0.00 | 0.00 | 0.00 | 53 | 1014.3 |
| 20260504013504 | 50 | 212 | 0.0 | 0.0 | 0.00 | 0.00 | 0.00 | 53 | 1014.2 |
| 20260504013004 | 51 | 225 | 0.0 | 0.0 | 0.00 | 0.00 | 0.00 | 52 | 1014.3 |
| 20260504012504 | 51 | 180 | 0.0 | 0.0 | 0.00 | 0.00 | 0.00 | 52 | 1014.3 |
| 20260504012004 | 51 | 202 | 0.0 | 0.0 | 0.00 | 0.00 | 0.00 | 52 | 1014.2 |
| 20260504011503 | 51 | 213 | 0.0 | 0.0 | 0.00 | 0.00 | 0.00 | 52 | 1014.1 |
| 20260504011004 | 50 | 225 | 1.0 | 6.0 | 0.00 | 0.00 | 0.00 | 52 | 1014.1 |
| 20260504010505 | 50 | 202 | 0.0 | 0.0 | 0.00 | 0.00 | 0.00 | 51 | 1014.0 |
| 20260504010004 | 50 | 225 | 0.0 | 0.0 | 0.00 | 0.00 | 0.00 | 51 | 1013.7 |
| 20260504005503 | 50 | 225 | 0.0 | 0.0 | 0.00 | 0.00 | 0.00 | 51 | 1013.6 |
| 20260504005004 | 51 | 225 | 0.0 | 0.0 | 0.00 | 0.00 | 0.00 | 50 | 1013.6 |
| 20260504004005 | 51 | 225 | 0.0 | 0.0 | 0.00 | 0.00 | 0.00 | 50 | 1013.6 |
| 20260504003504 | 51 | 225 | 0.0 | 0.0 | 0.00 | 0.00 | 0.00 | 49 | 1013.3 |
| 20260504002504 | 51 | 270 | 0.0 | 0.0 | 0.00 | 0.00 | 0.00 | 48 | 1013.1 |
| 20260504002005 | 52 | 270 | 0.0 | 0.0 | 0.00 | 0.00 | 0.00 | 48 | 1013.2 |
| 20260504001504 | 52 | 270 | 0.0 | 0.0 | 0.00 | 0.00 | 0.00 | 46 | 1013.1 |
| 20260504001003 | 53 | 270 | 0.0 | 0.0 | 0.00 | 0.00 | 0.00 | 46 | 1013.0 |
| 20260504000505 | 53 | 270 | 0.0 | 0.0 | 0.00 | 0.00 | 0.00 | 45 | 1013.0 |
| 20260503235505 | 54 | 270 | 0.0 | 0.0 | 0.00 | 0.00 | 0.00 | 44 | 1013.0 |
| 20260503235006 | 55 | 248 | 0.0 | 0.0 | 0.00 | 0.00 | 0.00 | 44 | 1013.0 |
| 20260503234506 | 55 | 248 | 0.0 | 0.0 | 0.00 | 0.00 | 0.00 | 44 | 1013.0 |
| 20260503233506 | 56 | 248 | 0.0 | 0.0 | 0.00 | 0.00 | 0.00 | 43 | 1012.9 |
| 20260503233008 | 56 | 248 | 0.0 | 0.0 | 0.00 | 0.00 | 0.00 | 43 | 1013.0 |
| 20260503232509 | 57 | 248 | 0.0 | 0.0 | 0.00 | 0.00 | 0.00 | 42 | 1012.9 |
| 20260503232005 | 57 | 161 | 0.0 | 0.0 | 0.00 | 0.00 | 0.00 | 42 | 1012.9 |
| 20260503231505 | 57 | 257 | 0.0 | 0.0 | 0.00 | 0.00 | 0.00 | 42 | 1012.9 |
| 20260503231005 | 57 | 248 | 0.0 | 0.0 | 0.00 | 0.00 | 0.00 | 42 | 1012.7 |
| 20260503230505 | 58 | 225 | 0.0 | 0.0 | 0.00 | 0.00 | 0.00 | 42 | 1012.8 |
| 20260503230006 | 58 | 225 | 0.0 | 0.0 | 0.00 | 0.00 | 0.00 | 42 | 1012.7 |
| 20260503225505 | 58 | 225 | 0.0 | 0.0 | 0.00 | 0.00 | 0.00 | 41 | 1012.7 |
| 20260503225005 | 58 | 225 | 0.0 | 12.0 | 0.00 | 0.00 | 0.00 | 41 | 1012.7 |
| 20260503224506 | 58 | 267 | 0.0 | 12.0 | 0.00 | 0.00 | 0.00 | 41 | 1012.8 |
| 20260503224005 | 58 | 252 | 0.0 | 5.0 | 0.00 | 0.00 | 0.00 | 41 | 1012.8 |
| 20260503223506 | 59 | 269 | 0.0 | 0.0 | 0.00 | 0.00 | 0.00 | 41 | 1012.8 |
| 20260503222505 | 59 | 270 | 1.0 | 3.0 | 0.00 | 0.00 | 0.00 | 41 | 1012.8 |
| 20260503221006 | 59 | 263 | 1.0 | 8.0 | 0.00 | 0.00 | 0.00 | 41 | 1012.7 |
| 20260503220505 | 59 | 287 | 0.0 | 0.0 | 0.00 | 0.00 | 0.00 | 40 | 1012.7 |
| 20260503215505 | 60 | 287 | 0.0 | 6.0 | 0.00 | 0.00 | 0.00 | 40 | 1012.7 |
| 20260503215005 | 60 | 210 | 1.0 | 6.0 | 0.00 | 0.00 | 0.00 | 40 | 1012.8 |
| 20260503214505 | 60 | 325 | 1.0 | 7.0 | 0.00 | 0.00 | 0.00 | 40 | 1012.8 |
| 20260503214005 | 60 | 339 | 0.0 | 6.0 | 0.00 | 0.00 | 0.00 | 41 | 1012.8 |
| 20260503213506 | 60 | 256 | 1.0 | 7.0 | 0.00 | 0.00 | 0.00 | 40 | 1012.6 |
| 20260503212505 | 60 | 311 | 1.0 | 8.0 | 0.00 | 0.00 | 0.00 | 40 | 1012.7 |
| 20260503212006 | 60 | 305 | 0.0 | 3.0 | 0.00 | 0.00 | 0.00 | 40 | 1012.6 |
| 20260503211505 | 60 | 309 | 1.0 | 13.0 | 0.00 | 0.00 | 0.00 | 39 | 1012.7 |
| 20260503211006 | 60 | 316 | 5.0 | 12.0 | 0.00 | 0.00 | 0.00 | 39 | 1012.7 |
| 20260503210505 | 60 | 315 | 0.0 | 9.0 | 0.00 | 0.00 | 0.00 | 39 | 1012.6 |
| 20260503210005 | 61 | 270 | 1.0 | 15.0 | 0.00 | 0.00 | 0.00 | 39 | 1012.8 |
| 20260503205506 | 61 | 310 | 2.0 | 12.0 | 0.00 | 0.00 | 0.00 | 38 | 1012.7 |
| 20260503205005 | 62 | 293 | 1.0 | 6.0 | 0.00 | 0.00 | 0.00 | 39 | 1012.8 |
| 20260503204005 | 62 | 315 | 1.0 | 6.0 | 0.00 | 0.00 | 0.00 | 39 | 1012.8 |
| 20260503203505 | 62 | 315 | 4.0 | 13.0 | 0.00 | 0.00 | 0.00 | 38 | 1012.8 |
| 20260503203005 | 62 | 286 | 2.0 | 6.0 | 0.00 | 0.00 | 0.00 | 38 | 1012.9 |
| 20260503202505 | 62 | 259 | 3.0 | 15.0 | 0.00 | 0.00 | 0.00 | 38 | 1012.8 |
| 20260503202005 | 62 | 0 | 2.0 | 8.0 | 0.00 | 0.00 | 0.00 | 38 | 1012.7 |
| 20260503201505 | 62 | 287 | 1.0 | 8.0 | 0.00 | 0.00 | 0.00 | 38 | 1012.6 |
| 20260503201005 | 62 | 291 | 0.0 | 3.0 | 0.00 | 0.00 | 0.00 | 38 | 1012.9 |
| 20260503200505 | 62 | 282 | 0.0 | 6.0 | 0.00 | 0.00 | 0.00 | 38 | 1013.0 |
| 20260503200005 | 63 | 315 | 0.0 | 7.0 | 0.00 | 0.00 | 0.00 | 38 | 1012.9 |
| 20260503195505 | 63 | 271 | 1.0 | 12.0 | 0.00 | 0.00 | 0.00 | 37 | 1012.9 |
| 20260503195005 | 63 | 309 | 2.0 | 10.0 | 0.00 | 0.00 | 0.00 | 37 | 1012.9 |
| 20260503194505 | 64 | 335 | 5.0 | 16.0 | 0.00 | 0.00 | 0.00 | 35 | 1012.8 |
| 20260503194004 | 64 | 338 | 4.0 | 13.0 | 0.00 | 0.00 | 0.00 | 35 | 1012.8 |
| 20260503193005 | 65 | 270 | 2.0 | 6.0 | 0.00 | 0.00 | 0.00 | 35 | 1012.8 |
| 20260503192505 | 66 | 326 | 2.0 | 10.0 | 0.00 | 0.00 | 0.00 | 34 | 1013.0 |
| 20260503192005 | 67 | 282 | 1.0 | 7.0 | 0.00 | 0.00 | 0.00 | 34 | 1013.1 |
| 20260503191505 | 68 | 251 | 0.0 | 9.0 | 0.00 | 0.00 | 0.00 | 34 | 1013.2 |
| 20260503191005 | 68 | 307 | 1.0 | 12.0 | 0.00 | 0.00 | 0.00 | 34 | 1013.1 |
| 20260503190005 | 70 | 292 | 0.0 | 0.0 | 0.00 | 0.00 | 0.00 | 33 | 1013.1 |
| 20260503185505 | 71 | 306 | 1.0 | 12.0 | 0.00 | 0.00 | 0.00 | 32 | 1013.4 |
| 20260503185005 | 72 | 308 | 2.0 | 8.0 | 0.00 | 0.00 | 0.00 | 32 | 1013.5 |
| 20260503184505 | 73 | 275 | 1.0 | 5.0 | 0.00 | 0.00 | 0.00 | 32 | 1013.4 |
| 20260503184005 | 74 | 325 | 0.0 | 7.0 | 0.00 | 0.00 | 0.00 | 32 | 1013.5 |
| 20260503183505 | 74 | 252 | 1.0 | 6.0 | 0.00 | 0.00 | 0.00 | 32 | 1013.5 |
| 20260503183005 | 73 | 288 | 2.0 | 7.0 | 0.00 | 0.00 | 0.00 | 34 | 1013.6 |
| 20260503182506 | 72 | 279 | 0.0 | 0.0 | 0.00 | 0.00 | 0.00 | 35 | 1013.5 |
| 20260503182006 | 71 | 315 | 0.0 | 7.0 | 0.00 | 0.00 | 0.00 | 35 | 1013.5 |
| 20260503181505 | 72 | 326 | 2.0 | 9.0 | 0.00 | 0.00 | 0.00 | 34 | 1013.5 |
| 20260503181005 | 72 | 302 | 5.0 | 9.0 | 0.00 | 0.00 | 0.00 | 35 | 1013.5 |
| 20260503180505 | 70 | 258 | 2.0 | 6.0 | 0.00 | 0.00 | 0.00 | 36 | 1013.6 |
| 20260503180005 | 69 | 357 | 0.0 | 16.0 | 0.00 | 0.00 | 0.00 | 36 | 1013.5 |
| 20260503175505 | 70 | 338 | 6.0 | 18.0 | 0.00 | 0.00 | 0.00 | 35 | 1013.5 |
| 20260503175005 | 71 | 301 | 2.0 | 13.0 | 0.00 | 0.00 | 0.00 | 35 | 1013.5 |
| 20260503174505 | 71 | 298 | 0.0 | 3.0 | 0.00 | 0.00 | 0.00 | 36 | 1013.6 |
| 20260503173505 | 70 | 284 | 2.0 | 8.0 | 0.00 | 0.00 | 0.00 | 36 | 1013.6 |
| 20260503173006 | 71 | 289 | 0.0 | 3.0 | 0.00 | 0.00 | 0.00 | 36 | 1013.6 |
| 20260503172505 | 72 | 209 | 0.0 | 6.0 | 0.00 | 0.00 | 0.00 | 36 | 1013.6 |
| 20260503172006 | 71 | 302 | 1.0 | 7.0 | 0.00 | 0.00 | 0.00 | 37 | 1013.5 |
| 20260503171505 | 70 | 340 | 0.0 | 0.0 | 0.00 | 0.00 | 0.00 | 37 | 1013.6 |
| 20260503150505 | 63 | 338 | 0.0 | 5.0 | 0.00 | 0.00 | 0.00 | 43 | 1014.0 |
| 20260503131005 | 52 | 349 | 1.0 | 8.0 | 0.00 | 0.00 | 0.00 | 63 | 1013.8 |
| 20260503130505 | 52 | 315 | 0.0 | 0.0 | 0.00 | 0.00 | 0.00 | 63 | 1013.6 |
| 20260503110504 | 45 | 0 | 0.0 | 0.0 | 0.00 | 0.00 | 0.00 | 77 | 1012.8 |
| 20260503090505 | 42 | 338 | 0.0 | 0.0 | 0.00 | 0.00 | 0.00 | 79 | 1011.4 |
| 20260503081505 | 41 | 338 | 0.0 | 0.0 | 0.00 | 0.00 | 0.00 | 77 | 1010.8 |
| 20260503081004 | 42 | 338 | 0.0 | 0.0 | 0.00 | 0.00 | 0.00 | 77 | 1010.6 |
| 20260503080504 | 42 | 338 | 0.0 | 0.0 | 0.00 | 0.00 | 0.00 | 77 | 1010.5 |